Lexington Weather

Lexington, Massachusetts, USA

69°F
7/3/2020 1:38pm 
  • Lexington Conditions: Overcast
  • Temperature: 68.5°F / 20.3°CWarmer 0.7°F than last hour.
  • Dew Point: 63.9°F 
  • Relative Humidity: 85%Decreased 2.0% since last hour.
  • Wind: Wind from NNE NNE 1 mph, 10-min avg: 1 mph, gust: 4 mph
  • Barometer: 29.85 in Steady
  • Visibility: 10 miles
  • Rain Today: 0.00 in
  •   

Regional Weather Roundup
for Boston / Norton, MA

        
000
ASUS41 KBOX 292304
RWRBOX

REGIONAL WEATHER ROUNDUP
NATIONAL WEATHER SERVICE BOSTON/NORTON MA
700 PM EDT MON JUN 29 2020

NOTE:  "FAIR" INDICATES FEW OR NO CLOUDS BELOW 12,000 FEET WITH NO 
SIGNIFICANT WEATHER AND/OR OBSTRUCTIONS TO VISIBILITY.

MAZALL-300000-
EASTERN MASSACHUSETTS
  
CITY           SKY/WX    TMP DP  RH WIND       PRES   REMARKS
BOSTON         CLOUDY    67  62  84 NE8       29.85R                  
BEVERLY        RAIN      64  63  96 NE7       29.85R FOG              
LAWRENCE       RAIN      65  63  93 NE7       29.87R                  
BEDFORD        PTSUNNY   72  64  76 NE7       29.83R                  
BLUE HILL        N/A     67  64  90 NE6       29.84R                  
NORWOOD        CLOUDY    70  64  81 CALM      29.83R                  
MARSHFIELD     CLOUDY    66  66 100 NW7       29.83S                  
PLYMOUTH       CLOUDY    67  65  93 N7        29.83R                  
TAUNTON        CLOUDY    70  65  84 N3        29.83R                  
NEW BEDFORD    CLOUDY    70  67  90 VRB3      29.82S                  
$$

MAZALL-300000-
CAPE COD AND THE ISLANDS
  
CITY           SKY/WX    TMP DP  RH WIND       PRES   REMARKS
FALMOUTH       CLOUDY    66  66 100 N8        29.83R                  
HYANNIS        CLOUDY    70  65  84 E6        29.81R                  
CHATHAM        CLOUDY    65  62  90 CALM      29.84R                  
PROVINCETOWN   CLOUDY    66  66 100 E8        29.84S                  
NANTUCKET      CLOUDY    66  62  87 CALM      29.81S                  
MARTHAS VNYRD  CLOUDY    69  66  90 N6        29.81S                  
$$
 
MAZALL-300000-
CENTRAL AND WESTERN MASSACHUSETTS
  
CITY           SKY/WX    TMP DP  RH WIND       PRES   REMARKS
WORCESTER      LGT RAIN  67  63  87 CALM      29.87R                  
FITCHBURG      CLOUDY    71  64  78 CALM      29.86R                  
ORANGE           N/A     70  65  84 N3        29.88R                  
SPRINGFIELD    PTSUNNY   70  66  85 CALM      29.83S                  
WESTFIELD      PTSUNNY   71  65  81 CALM      29.85R                  
NORTH ADAMS    CLOUDY    70  64  81 W6        29.87R                  
PITTSFIELD     LGT RAIN  66  62  87 NE8       29.87R FOG              
$$
 
RIZALL-300000-
RHODE ISLAND
  
CITY           SKY/WX    TMP DP  RH WIND       PRES   REMARKS
PROVIDENCE     CLOUDY    71  66  84 NE6       29.83S                  
NEWPORT        CLOUDY    73  66  78 N7        29.81F                  
BLOCK ISLAND   CLOUDY    65  63  93 W3        29.82R                  
SMITHFIELD     CLOUDY    68  67  96 NE5       29.85R                  
WESTERLY       CLOUDY    71  66  84 NW3       29.82S                  
$$
 
CTZALL-300000-
CONNECTICUT
  
CITY           SKY/WX    TMP DP  RH WIND       PRES   REMARKS
BRADLEY INTL   PTSUNNY   72  63  73 NW5       29.84S                  
HARTFORD       CLOUDY    72  62  71 N6        29.84S                  
BRIDGEPORT     RAIN      73  64  73 N12       29.85R                  
DANBURY        CLOUDY    70  60  70 E5        29.87R                  
GROTON         CLOUDY    68  65  90 N6        29.82S                  
NEW HAVEN      LGT RAIN  71  64  78 N10       29.85R                  
CHESTER        NOT AVBL                                               
MERIDEN        NOT AVBL                                               
WILLIMANTIC    CLOUDY    69  67  93 CALM      29.84S                  
OXFORD         CLOUDY    67  65  93 CALM      29.88S                  
$$

MEZ002-015-021-024-NHZ003-005-008-011-012-014-VTZ005-008-300000-
NORTHERN NEW ENGLAND
  
CITY           SKY/WX    TMP DP  RH WIND       PRES   REMARKS
PORTLAND ME    CLOUDY    63  60  90 E12       29.90R FOG              
BANGOR ME      CLOUDY    69  63  81 E6        29.93R                  
CONCORD NH     CLOUDY    66  65  96 N6        29.87R FOG              
MANCHESTER NH  CLOUDY    70  62  76 NE9       29.85R                  
NASHUA NH      CLOUDY    71  66  84 NE8       29.86R                  
PORTSMOUTH NH  HVY RAIN  62  60  94 NE9       29.86  FOG              
JAFFREY NH     LGT RAIN  65  62  90 VRB5      29.89R                  
KEENE NH       LGT RAIN  68  65  90 NE5       29.88R                  
BURLINGTON VT  LGT RAIN  70  66  87 NW10      29.94R                  
MT. WASHINGTON NOT AVBL                                               
$$

NYZ052-076-300000-
EASTERN NEW YORK
  
CITY           SKY/WX    TMP DP  RH WIND       PRES   REMARKS
ALBANY         LGT RAIN  72  64  76 N7        29.89R                  
NEW YORK CITY  TSTM      76  68  76 N9        29.84R                  
$$
 
ANZALL-300000-
MARINE OBSERVATIONS
  
STATION/POSITION TIME  TEMP    WIND        PRES    VSBY  WAVE
                       AIR SEA DIR/SP/G                  HT/PER
                 (UTC) (F)     (DEG/KT/KT) (MB)    (MI)  (FT/S)
BOSTON BUOY      2250   66 67   90/  4/  6 1009.2R         2/ 3
BUZZARDS BAY     2200          350/ 10/ 11 1011.0R
NANTUCKET SOUND  2250   66 71   80/  4/  6 1009.0R         1/ 3
MASS BAY-STELLWA 2204   64      10/  8/ 10 1007.9R  1 7/8  3/ 8
ISLE OF SHOALS   2200   59      10/ 18/ 19 1010.3R
S OF BLOCK IS    2226      71                N/A           3/10
$$

......................KEY.........................
  SKY/WX - SKY CONDITION/PRESENT WEATHER
  TMP    - TEMPERATURE IN FAHRENHEIT
  DWPT   - DEWPOINT IN FAHRENHEIT
  RH     - RELATIVE HUMIDITY IN PERCENT
  WIND   - DIRECTION AND SPEED IN MPH
  PRES   - MEAN SEA LEVEL PRESSURE IN INCHES OF HG
  WCI    - WIND CHILL INDEX
  VSB    - VISIBILITY IN MILES
  HX     - HEAT INDEX
  TC     - TEMPERATURE IN CELSIUS
  VRB    - VARIABLE WIND DIRECTION
  N/A    - NOT AVAILABLE
  
      

Other recent Regional Weather Roundups

Fri Jul 3, 1:04pm

Fri Jul 3, 12:04pm

Fri Jul 3, 11:04am

Fri Jul 3, 10:04am

Fri Jul 3, 9:04am

Fri Jul 3, 8:04am

Fri Jul 3, 7:04am

Fri Jul 3, 6:04am

Fri Jul 3, 5:04am

Fri Jul 3, 4:04am

Fri Jul 3, 3:04am

Fri Jul 3, 2:04am

Fri Jul 3, 1:04am

Fri Jul 3, 12:04am

Thu Jul 2, 11:05pm

Thu Jul 2, 10:04pm

Thu Jul 2, 9:04pm

Thu Jul 2, 8:04pm

Thu Jul 2, 7:05pm

Thu Jul 2, 6:04pm

Thu Jul 2, 5:05pm

Thu Jul 2, 4:04pm

Thu Jul 2, 3:04pm

Thu Jul 2, 2:04pm

Thu Jul 2, 1:05pm

Thu Jul 2, 12:04pm

Thu Jul 2, 11:04am

Thu Jul 2, 10:05am

Thu Jul 2, 9:05am

Thu Jul 2, 8:04am

Thu Jul 2, 7:04am

Thu Jul 2, 6:05am

Thu Jul 2, 5:04am

Thu Jul 2, 4:04am

Thu Jul 2, 3:04am

Thu Jul 2, 2:04am

Thu Jul 2, 1:04am

Thu Jul 2, 12:05am

Wed Jul 1, 11:05pm

Wed Jul 1, 10:04pm

Wed Jul 1, 9:04pm

Wed Jul 1, 8:04pm

Wed Jul 1, 7:04pm

Wed Jul 1, 6:04pm

Wed Jul 1, 5:05pm

Wed Jul 1, 4:04pm

Wed Jul 1, 3:04pm

Wed Jul 1, 2:04pm

Wed Jul 1, 1:04pm

Wed Jul 1, 12:04pm

Wed Jul 1, 11:04am

Wed Jul 1, 10:04am

Wed Jul 1, 9:04am

Wed Jul 1, 8:05am

Wed Jul 1, 7:04am

Wed Jul 1, 6:04am

Wed Jul 1, 5:04am

Wed Jul 1, 4:04am

Wed Jul 1, 3:04am

Wed Jul 1, 2:04am

Wed Jul 1, 1:04am

Wed Jul 1, 12:04am

Tue Jun 30, 11:04pm

Tue Jun 30, 10:05pm

Tue Jun 30, 9:04pm

Tue Jun 30, 8:05pm

Tue Jun 30, 7:05pm

Tue Jun 30, 6:04pm

Tue Jun 30, 5:04pm

Tue Jun 30, 4:04pm

Tue Jun 30, 3:04pm

Tue Jun 30, 2:04pm

Tue Jun 30, 1:04pm

Tue Jun 30, 12:04pm

Tue Jun 30, 11:04am

Tue Jun 30, 10:04am

Tue Jun 30, 9:04am

Tue Jun 30, 8:04am

Tue Jun 30, 7:04am

Tue Jun 30, 6:04am

Tue Jun 30, 5:04am

Tue Jun 30, 4:04am

Tue Jun 30, 3:04am

Tue Jun 30, 2:04am

Tue Jun 30, 1:04am

Tue Jun 30, 12:04am

Mon Jun 29, 11:04pm

Mon Jun 29, 10:05pm

Mon Jun 29, 9:04pm

Mon Jun 29, 8:05pm

Mon Jun 29, 6:04pm

Mon Jun 29, 5:04pm

Mon Jun 29, 4:05pm

Mon Jun 29, 3:04pm

Mon Jun 29, 2:04pm

Mon Jun 29, 1:04pm

Mon Jun 29, 12:04pm

Mon Jun 29, 11:04am

Mon Jun 29, 10:04am

Mon Jun 29, 9:04am

Mon Jun 29, 8:04am

Mon Jun 29, 7:04am

Mon Jun 29, 6:04am

Mon Jun 29, 5:04am

Mon Jun 29, 4:04am

Mon Jun 29, 3:04am

Mon Jun 29, 2:04am

Mon Jun 29, 1:04am

Mon Jun 29, 12:04am

Sun Jun 28, 11:05pm

Sun Jun 28, 10:04pm

Sun Jun 28, 9:05pm

Sun Jun 28, 8:04pm

Sun Jun 28, 7:04pm

Sun Jun 28, 6:04pm

Sun Jun 28, 5:04pm

Sun Jun 28, 4:04pm

Sun Jun 28, 3:04pm

Sun Jun 28, 2:05pm

Sun Jun 28, 1:04pm

Sun Jun 28, 12:04pm

Sun Jun 28, 11:04am

Sun Jun 28, 10:04am

Sun Jun 28, 9:04am

Sun Jun 28, 8:04am

Sun Jun 28, 7:04am

Sun Jun 28, 6:04am

Sun Jun 28, 5:04am

Sun Jun 28, 4:04am

Sun Jun 28, 3:04am

Sun Jun 28, 2:05am

Sun Jun 28, 1:04am

Sun Jun 28, 12:05am

Sat Jun 27, 11:04pm

Sat Jun 27, 10:04pm

Sat Jun 27, 9:04pm

Sat Jun 27, 8:04pm

Sat Jun 27, 7:04pm

Sat Jun 27, 6:04pm

Sat Jun 27, 5:04pm

Sat Jun 27, 4:05pm

Sat Jun 27, 3:04pm

Sat Jun 27, 2:04pm

Sat Jun 27, 1:05pm

Sat Jun 27, 12:04pm

Sat Jun 27, 11:04am

Sat Jun 27, 10:04am

Sat Jun 27, 9:04am

Sat Jun 27, 8:04am

Sat Jun 27, 7:04am

Sat Jun 27, 6:04am

Sat Jun 27, 5:05am

Sat Jun 27, 4:04am

Sat Jun 27, 3:04am

Sat Jun 27, 2:04am

Sat Jun 27, 1:04am

Sat Jun 27, 12:04am

Fri Jun 26, 11:04pm

Fri Jun 26, 10:04pm

Fri Jun 26, 9:05pm

Fri Jun 26, 8:04pm

Fri Jun 26, 7:05pm

Fri Jun 26, 6:04pm

Fri Jun 26, 5:04pm

Fri Jun 26, 4:04pm

Fri Jun 26, 3:04pm

Fri Jun 26, 2:05pm

Meta data:

ID: f0f0c6dc-28a3-4953-9e0f-41ee808c7312
Link: https://api.weather.gov/products/f0f0c6dc-28a3-4953-9e0f-41ee808c7312